Home   Weather   Elbląg   Past weeks

Flag for Poland Past Weather in Elbląg, Poland — Yesterday and Last 2 Weeks

Now
37 °F

Passing clouds.


Feels Like: 31 °F
Forecast: 35 / 38 °F
Wind: 7 mph from Northwest

Location: Hel

Current Time: Dec 3, 2016 at 5:54:04 am

Latest Report: Dec 3, 2016 at 5:00 am


Visibility: 13 mi

Pressure: 30.05 "Hg

Humidity: 61%

Dew Point: 24 °F

Location of ElblągLocation

Past Weather in Elbląg — Graph

°F

Elbląg Temperature Yesterday

Maximum temperature yesterday: 38 °F (at 9:00 pm)
Minimum temperature yesterday: 33 °F (at 1:00 am)
Average temperature yesterday: 36 °F

High & Low Weather Summary for the Past Weeks

 TemperatureHumidityPressure
High50 °F (Nov 18, 6:00 pm)99% (Nov 24, 1:00 am)30.28 "Hg (Nov 24, 1:00 am)
Low33 °F (Nov 28, 2:00 am)55% (Nov 28, 12:00 pm)29.35 "Hg (Dec 2, 12:00 am)
Average42 °F88%29.93 "Hg
* Reported Nov 18 3:00 am — Dec 3 3:00 am, Elbląg, Weather by CustomWeather, © 2016

Note: Actual official high and low records may vary slightly from our data, if they occured in-between our weather recording intervals... More about our weather records

Advertising

Elbląg Weather History for the Previous 24 Hours

Scroll right to see more
 ConditionsComfort  
Time TempWeatherWind HumidityBarometerVisibility
3:00 am
Sat, Dec 3
37 °FPassing clouds.7 mph68%30.01 "Hg12 mi
2:00 am38 °FOvercast.7 mph74%29.99 "Hg12 mi
1:00 am36 °FSprinkles. Overcast.8 mph89%29.98 "Hg11 mi
12:00 am37 °FSprinkles. Overcast.8 mph88%29.95 "Hg11 mi
11:00 pm
Fri, Dec 2
36 °FPassing clouds.7 mph92%29.93 "Hg16 mi
10:00 pm37 °FPassing clouds.7 mph87%29.91 "Hg16 mi
9:00 pm38 °FPassing clouds.8 mph79%29.90 "Hg16 mi
8:00 pm36 °FPassing clouds.6 mph82%29.89 "Hg16 mi
7:00 pm36 °FPassing clouds.7 mph88%29.88 "Hg16 mi
6:00 pm37 °FPassing clouds.7 mph90%29.88 "Hg12 mi
5:00 pm37 °FPassing clouds.7 mph90%29.86 "Hg12 mi
4:00 pm36 °FPassing clouds.6 mph92%29.85 "Hg12 mi
3:00 pm37 °FPartly sunny.7 mph89%29.83 "Hg16 mi
2:00 pm37 °FPartly sunny.8 mph90%29.82 "Hg12 mi
1:00 pm37 °FSprinkles. Overcast.7 mph90%29.80 "Hg6 mi
12:00 pm37 °FSprinkles. Overcast.6 mph89%29.79 "Hg11 mi
11:00 am38 °FPartly sunny.7 mph86%29.76 "Hg16 mi
10:00 am38 °FSprinkles. Partly sunny.6 mph88%29.75 "Hg11 mi
9:00 am37 °FPartly sunny.6 mph85%29.72 "Hg16 mi
8:00 am36 °FScattered clouds.6 mph87%29.69 "Hg16 mi
7:00 am36 °FPassing clouds.6 mph91%29.65 "Hg16 mi
6:00 am36 °FOvercast.3 mph96%29.62 "Hg12 mi
5:00 am36 °FOvercast.7 mph95%29.57 "Hg11 mi
Weather by CustomWeather, © 2016

See weather overviewHow to use our weather pages